Simultaneous Nadir Overpasses (SNOs) Predictions

Prediction of SNOs between FY3D and AQUA Satellite Orbit:

Table of predicted SNOs for the next 14.0 days since TLE Epoch: 12/9/2023
Index Date (FY3D) Time (FY3D) Lat,Lon (FY3D) SZA (FY3D ) Date (AQUA) Time (AQUA) Lat,Lon (AQUA) SZA (AQUA ) Distance(km) Time Diff (sec)
1 12/10/2023 12:14:49 -79.21, 155.96 77.42 12/10/2023 12:15:46 -79.21, 155.95 77.43 0.23 57
2 12/10/2023 13:05:27 78.92, -34.55 102.19 12/10/2023 13:05:02 78.91, -34.54 102.19 0.30 25
3 12/13/2023 01:09:33 -79.32, -38.52 77.05 12/13/2023 01:10:40 -79.31, -38.38 77.08 2.91 67
4 12/13/2023 02:00:07 78.89, 132.00 102.38 12/13/2023 01:59:53 78.90, 131.86 102.39 3.00 14
5 12/15/2023 14:06:46 -80.70, 74.46 69.81 12/15/2023 14:07:59 -81.47, 73.12 69.39 88.63 73
6 12/15/2023 14:54:53 79.08, -63.00 102.80 12/15/2023 14:54:48 79.08, -62.87 102.78 2.82 5
7 12/18/2023 03:49:32 79.03, 103.74 102.85 12/18/2023 03:49:37 79.04, 103.68 102.86 1.50 5
8 12/18/2023 04:39:02 -76.00, -73.84 80.69 12/18/2023 04:37:48 -75.80, -74.81 80.87 34.16 74
9 12/20/2023 16:44:12 79.02, -89.80 102.90 12/20/2023 16:44:26 79.03, -89.94 102.92 3.14 14



Historial Predications of SNOs between FY3D and AQUA
